Location: Newark
(30.1000°N, 109.4667°E)
Time: 12:40:43
(UTC+00:00)

A-11 Canister half - Pass Details

Date: 21 February 2020
Orbit: 1516 x 1683 km, 47.2° (Epoch: 05 April)

Event Time Altitude Azimuth Distance (km) Brightness Sun altitude
Rises 14:29:45 0° 310° (NW) 4,791 12.2 -50.9°
Reaches altitude 10° 14:33:01 10° 315° (NW) 3,781 11.5 -51.5°
Enters shadow 14:36:46 26° 326° (NW) 2,702 10.4 -52.3°
